UAL1011 KIAD-FACT

Flight info

Callsign UAL1011
Flight time N/A
Altitude 29000
Route JCOBY4 AGARD DCT DONIL DCT CORNE B24 AZEZU/M082F290 DCT MUNEY DCT 39N060W 35N050W/M082F310 29N040W 26N035W DCT RUKAV/N0490F310 DCT SEPOM/N0494F330 DCT ANITI UR979 AD DCT APUMI/N0491F350 DCT 04S000E/N0487F340 DCT GAPEL/N0486F350 DCT 10S001E 15S003E 18S005E 20S006E 25S010E/N0478F370 DCT IMKAM DCT UVIKU UQ35 ASPIK ASPIK1C
Aircraft B77W/H-SDE1E2E3FGHIJ2J3J4J5M1RWXY/LB1D1

Departure

Time N/A
Airport Washington Dulles International Airport (KIAD)

Arrival

Time 2026-05-04 04:07
Airport Cape Town International Airport (FACT)
Time Latitude Longitude Altitude Speed Heading
2026-05-04 03:18 -29.59705 13.61741 37078 ft 559 kts 148°
2026-05-04 03:19 -29.62866 13.64363 37074 ft 559 kts 149°
2026-05-04 03:19 -29.69172 13.69636 37059 ft 561 kts 147°
2026-05-04 03:20 -29.75492 13.74900 37068 ft 560 kts 147°
2026-05-04 03:20 -29.81780 13.80144 37071 ft 560 kts 149°
2026-05-04 03:21 -29.88104 13.85394 37069 ft 560 kts 148°
2026-05-04 03:21 -29.94469 13.90634 37051 ft 560 kts 148°
2026-05-04 03:22 -30.00785 13.95926 37035 ft 561 kts 148°
2026-05-04 03:22 -30.07135 14.01230 37048 ft 560 kts 148°
2026-05-04 03:23 -30.13378 14.06527 37031 ft 560 kts 147°
2026-05-04 03:23 -30.19701 14.11830 37036 ft 560 kts 148°
2026-05-04 03:24 -30.26021 14.17183 37026 ft 561 kts 147°
2026-05-04 03:24 -30.32274 14.22490 37031 ft 560 kts 148°
2026-05-04 03:25 -30.38591 14.27832 37033 ft 560 kts 148°
2026-05-04 03:25 -30.44885 14.33116 37032 ft 561 kts 148°
2026-05-04 03:26 -30.51169 14.38432 37037 ft 561 kts 147°
2026-05-04 03:26 -30.57449 14.43833 37035 ft 561 kts 148°
2026-05-04 03:27 -30.63788 14.49189 37033 ft 561 kts 148°
2026-05-04 03:27 -30.70076 14.54523 37045 ft 561 kts 148°
2026-05-04 03:28 -30.76371 14.59947 37039 ft 562 kts 148°
2026-05-04 03:28 -30.82637 14.65340 37048 ft 562 kts 148°
2026-05-04 03:29 -30.88917 14.70731 37024 ft 562 kts 147°
2026-05-04 03:29 -30.95276 14.76131 37016 ft 563 kts 147°
2026-05-04 03:30 -31.01542 14.81581 37024 ft 563 kts 147°
2026-05-04 03:30 -31.07813 14.87009 37027 ft 562 kts 148°
2026-05-04 03:31 -31.14123 14.92462 37013 ft 562 kts 147°
2026-05-04 03:31 -31.20364 14.97878 37016 ft 562 kts 148°
2026-05-04 03:32 -31.26436 15.03749 37003 ft 568 kts 140°
2026-05-04 03:32 -31.32119 15.10079 37015 ft 568 kts 139°
2026-05-04 03:33 -31.37826 15.16510 37016 ft 568 kts 139°
2026-05-04 03:33 -31.43547 15.22844 37025 ft 567 kts 140°
2026-05-04 03:34 -31.49250 15.29209 37015 ft 568 kts 139°
2026-05-04 03:34 -31.54915 15.35621 37023 ft 569 kts 138°
2026-05-04 03:35 -31.60582 15.42049 37033 ft 569 kts 139°
2026-05-04 03:35 -31.66309 15.48451 37044 ft 569 kts 139°
2026-05-04 03:36 -31.72004 15.54936 37042 ft 570 kts 139°
2026-05-04 03:36 -31.77700 15.61371 37054 ft 570 kts 139°
2026-05-04 03:37 -31.83417 15.67845 37035 ft 570 kts 138°
2026-05-04 03:37 -31.89098 15.74294 37032 ft 570 kts 138°
2026-05-04 03:38 -31.94810 15.80794 37031 ft 570 kts 138°
2026-05-04 03:38 -32.00507 15.87290 37031 ft 571 kts 138°
2026-05-04 03:39 -32.06205 15.93800 37031 ft 571 kts 138°
2026-05-04 03:39 -32.11886 16.00304 37019 ft 571 kts 138°
2026-05-04 03:40 -32.17584 16.06838 37014 ft 571 kts 138°
2026-05-04 03:40 -32.23280 16.13384 37014 ft 571 kts 138°
2026-05-04 03:41 -32.28958 16.19921 37014 ft 571 kts 138°
2026-05-04 03:41 -32.34652 16.26488 37013 ft 571 kts 138°
2026-05-04 03:42 -32.40328 16.33046 37013 ft 571 kts 138°
2026-05-04 03:42 -32.45971 16.39578 37013 ft 571 kts 138°
2026-05-04 03:43 -32.51629 16.46139 37012 ft 571 kts 138°
2026-05-04 03:43 -32.57336 16.52770 37012 ft 571 kts 138°
2026-05-04 03:44 -32.62998 16.59361 37012 ft 572 kts 138°
2026-05-04 03:44 -32.68654 16.65958 37007 ft 572 kts 137°
2026-05-04 03:45 -32.74383 16.72651 36992 ft 572 kts 137°
2026-05-04 03:45 -32.80040 16.79277 36992 ft 572 kts 137°
2026-05-04 03:46 -32.85701 16.85915 36992 ft 572 kts 137°
2026-05-04 03:46 -32.91331 16.92531 36992 ft 573 kts 137°
2026-05-04 03:47 -32.96981 16.99184 36751 ft 568 kts 137°
2026-05-04 03:47 -32.99810 17.02519 35923 ft 577 kts 137°
2026-05-04 03:47 -33.02668 17.05889 34929 ft 591 kts 137°
2026-05-04 03:47 -33.05616 17.09370 33838 ft 602 kts 137°
2026-05-04 03:48 -33.08615 17.12915 32717 ft 611 kts 136°
2026-05-04 03:48 -33.11608 17.16459 31750 ft 612 kts 136°
2026-05-04 03:48 -33.14635 17.20046 31155 ft 605 kts 136°
2026-05-04 03:48 -33.17554 17.23511 30712 ft 592 kts 136°
2026-05-04 03:49 -33.20445 17.26946 30332 ft 578 kts 136°
2026-05-04 03:49 -33.23270 17.30304 29766 ft 569 kts 136°
2026-05-04 03:49 -33.26034 17.33592 29097 ft 565 kts 136°
2026-05-04 03:49 -33.28836 17.36929 28523 ft 562 kts 135°
2026-05-04 03:50 -33.31585 17.40205 28013 ft 559 kts 135°
2026-05-04 03:50 -33.34296 17.43439 27531 ft 554 kts 135°
2026-05-04 03:50 -33.37041 17.46718 27049 ft 550 kts 135°
2026-05-04 03:50 -33.39721 17.49921 26529 ft 546 kts 135°
2026-05-04 03:51 -33.42413 17.53142 26018 ft 541 kts 135°
2026-05-04 03:51 -33.45040 17.56268 25513 ft 537 kts 138°
2026-05-04 03:51 -33.47900 17.59108 24985 ft 530 kts 146°
2026-05-04 03:51 -33.50888 17.61695 24487 ft 526 kts 147°
2026-05-04 03:52 -33.53860 17.64238 23990 ft 522 kts 147°
2026-05-04 03:52 -33.56766 17.66727 23465 ft 518 kts 146°
2026-05-04 03:52 -33.59707 17.69253 22907 ft 516 kts 146°
2026-05-04 03:52 -33.62595 17.71736 22401 ft 512 kts 146°
2026-05-04 03:53 -33.65487 17.74227 21928 ft 507 kts 146°
2026-05-04 03:53 -33.68348 17.76696 21458 ft 502 kts 146°
2026-05-04 03:53 -33.71144 17.79110 20991 ft 498 kts 146°
2026-05-04 03:53 -33.73969 17.81555 20508 ft 493 kts 146°
2026-05-04 03:54 -33.76745 17.83957 20028 ft 489 kts 147°
2026-05-04 03:54 -33.79474 17.86322 19550 ft 484 kts 147°
2026-05-04 03:54 -33.82180 17.88669 19074 ft 480 kts 147°
2026-05-04 03:54 -33.84887 17.91018 18633 ft 476 kts 147°
2026-05-04 03:55 -33.87563 17.93343 18203 ft 472 kts 147°
2026-05-04 03:55 -33.90191 17.95629 17757 ft 467 kts 147°
2026-05-04 03:55 -33.92829 17.97924 17287 ft 463 kts 147°
2026-05-04 03:55 -33.95420 18.00181 16804 ft 458 kts 147°
2026-05-04 03:56 -33.97964 18.02400 16370 ft 452 kts 147°
2026-05-04 03:56 -34.00493 18.04607 16243 ft 437 kts 147°
2026-05-04 03:56 -34.02900 18.06711 16202 ft 417 kts 147°
2026-05-04 03:56 -34.05188 18.08712 16186 ft 397 kts 147°
2026-05-04 03:57 -34.07315 18.10667 16166 ft 381 kts 140°
2026-05-04 03:57 -34.09076 18.12946 16114 ft 362 kts 125°
2026-05-04 03:57 -34.10360 18.15535 15758 ft 359 kts 112°
2026-05-04 03:57 -34.11326 18.18281 15071 ft 362 kts 107°
2026-05-04 03:58 -34.12941 18.24067 13630 ft 367 kts 103°
2026-05-04 03:58 -34.13691 18.27009 12903 ft 370 kts 103°
2026-05-04 03:58 -34.14425 18.29981 12151 ft 372 kts 103°
2026-05-04 03:59 -34.15004 18.32347 11611 ft 369 kts 103°
2026-05-04 03:59 -34.15716 18.35280 11123 ft 358 kts 104°
2026-05-04 03:59 -34.16394 18.38104 10732 ft 346 kts 104°
2026-05-04 03:59 -34.17051 18.40847 10314 ft 338 kts 104°
2026-05-04 04:00 -34.17684 18.43509 9895 ft 330 kts 104°
2026-05-04 04:00 -34.18312 18.46159 9471 ft 322 kts 103°
2026-05-04 04:00 -34.18919 18.48718 9066 ft 314 kts 103°
2026-05-04 04:00 -34.19508 18.51236 8645 ft 306 kts 100°
2026-05-04 04:01 -34.19629 18.53687 8209 ft 290 kts 75°
2026-05-04 04:01 -34.19193 18.56014 7749 ft 280 kts 68°
2026-05-04 04:01 -34.18634 18.58230 7258 ft 276 kts 65°
2026-05-04 04:01 -34.18041 18.60417 6776 ft 272 kts 65°
2026-05-04 04:02 -34.17432 18.62561 6359 ft 262 kts 57°
2026-05-04 04:02 -34.16405 18.64180 5928 ft 235 kts 30°
2026-05-04 04:02 -34.15031 18.65133 5304 ft 219 kts 11°
2026-05-04 04:02 -34.13611 18.65326 4635 ft 199 kts 351°
2026-05-04 04:03 -34.12264 18.65119 3947 ft 194 kts 345°
2026-05-04 04:03 -34.10984 18.64761 3259 ft 191 kts 342°
2026-05-04 04:03 -34.09703 18.64356 2659 ft 186 kts 342°
2026-05-04 04:03 -34.08498 18.63947 2300 ft 174 kts 342°
2026-05-04 04:04 -34.07363 18.63579 2016 ft 162 kts 345°
2026-05-04 04:04 -34.06300 18.63253 1808 ft 152 kts 344°
2026-05-04 04:04 -34.05278 18.62941 1589 ft 147 kts 344°
2026-05-04 04:04 -34.04293 18.62632 1375 ft 144 kts 343°
2026-05-04 04:05 -34.03321 18.62321 1157 ft 141 kts 343°
2026-05-04 04:05 -34.02361 18.62022 942 ft 140 kts 343°
2026-05-04 04:05 -34.01424 18.61721 743 ft 137 kts 343°
2026-05-04 04:05 -34.00511 18.61438 543 ft 135 kts 340°
2026-05-04 04:06 -33.99716 18.61162 384 ft 138 kts 342°
2026-05-04 04:06 -33.98769 18.60881 211 ft 141 kts 343°
2026-05-04 04:06 -33.97883 18.60605 160 ft 114 kts 345°
2026-05-04 04:06 -33.97238 18.60400 164 ft 78 kts 345°
2026-05-04 04:07 -33.96823 18.60266 164 ft 41 kts 343°
2026-05-04 04:07 -33.96577 18.60192 165 ft 22 kts 345°
2026-05-04 04:07 -33.96487 18.60140 166 ft 8 kts 318°
2026-05-04 04:07 -33.96453 18.60133 165 ft 4 kts 62°
2026-05-04 04:08 -33.96477 18.60163 166 ft 9 kts 158°
2026-05-04 04:08 -33.96587 18.60202 165 ft 23 kts 164°
2026-05-04 04:08 -33.96784 18.60259 164 ft 35 kts 165°
2026-05-04 04:08 -33.97002 18.60329 163 ft 21 kts 165°
2026-05-04 04:09 -33.97100 18.60357 163 ft 10 kts 185°
2026-05-04 04:09 -33.97119 18.60290 164 ft 10 kts 281°
2026-05-04 04:09 -33.97096 18.60182 166 ft 15 kts 285°
2026-05-04 04:09 -33.97063 18.60046 166 ft 15 kts 286°
2026-05-04 04:10 -33.97028 18.59957 166 ft 10 kts 316°
2026-05-04 04:10 -33.96967 18.59923 167 ft 8 kts 344°
2026-05-04 04:10 -33.96915 18.59905 168 ft 6 kts 344°
2026-05-04 04:10 -33.96893 18.59878 168 ft 4 kts 282°
2026-05-04 04:11 -33.96894 18.59842 168 ft 4 kts 259°
2026-05-04 04:11 -33.96897 18.59824 168 ft 1 kts 256°
2026-05-04 04:11 -33.96901 18.59806 167 ft 0 kts 256°